Location: Sternwarte_Laufen
(47.9344°N, 12.9346°E)
Time: 09:58:23
(UTC+02:00)

ISS - Pass Details

Date: 16 July 2018
Orbit: 402 x 408 km, 51.6° (Epoch: 19 July)

Event Time Altitude Azimuth Distance (km) Brightness Sun altitude
Exits shadow 00:59:15 30° 77° (ENE) 758 -2.4 -20.6°
Drops below altitude 10° 01:01:06 10° 70° (ENE) 1,471 -0.8 -20.6°
Sets 01:03:12 0° 67° (ENE) 2,335 0.3 -20.6°
